Hutchinson, MN

3:41 PM CDT on May 25, 2017 (GMT -0500)
Hutchinson Municipal-Butler

Weather History for KHCD - March, 2013

Change the Weather History Date:

Wednesday, March 13, 2013

  Actual Average Record
Temperature  
Mean Temperature 12 °F -  
Max Temperature 23 °F 38 °F 68 °F (1990)
Min Temperature 1 °F 21 °F -13 °F (1993)
Degree Days  
Heating Degree Days 54    
Moisture  
Dew Point 10 °F    
Average Humidity 84    
Maximum Humidity 92    
Minimum Humidity 74    
Precipitation  
Precipitation 0.00 in - - ()
Sea Level Pressure  
Sea Level Pressure 30.31 in    
Wind  
Wind Speed 7 mph (West)    
Max Wind Speed 14 mph    
Max Gust Speed -    
Visibility 10 miles    
Events      
Averages and records for this station are not official NWS values.
T = Trace of Precipitation, MM = Missing Value Source: NWS Daily Summary

Daily Weather History Graph

Daily Weather History Graph

Search for Another Location

Airport or City:

Trip Planner

Search our weather history database for the weather conditions in past years. The results will help you decide how hot, cold, wet, or windy it might be!

Date:

Astronomy

Mar. 13, 2013 Rise Set
Actual Time 7:33 AM CDT 7:21 PM CDT
Civil Twilight 7:03 AM CDT 7:50 PM CDT
Nautical Twilight 6:30 AM CDT 8:24 PM CDT
Astronomical Twilight 5:55 AM CDT 8:59 PM CDT
Moon 8:06 AM CDT (3/13) 9:46 PM CDT (3/13)
Length of Visible Light 12h 46m
Length of Day
11h 48m
Waxing Crescent, 4% of the Moon is Illuminated
Mar 13
Waxing Crescent
Mar 19
First Quarter
Mar 27
Full
Apr 2
Last Quarter
Apr 10
New

Hourly Weather History & Observations

Time (CDT) Temp. Windchill Dew Point Humidity Pressure Visibility Wind Dir Wind Speed Gust Speed Precip Events Conditions
12:14 AM 14.9 °F 0.3 °F 10.4 °F 82% 30.23 in 10.0 mi NW 13.8 mph - N/A   Clear
12:54 AM 13.1 °F -0.7 °F 9.3 °F 85% 30.24 in 10.0 mi NW 11.5 mph - N/A   Clear
1:14 AM 12.9 °F -0.2 °F 9.0 °F 84% 30.24 in 10.0 mi WNW 10.4 mph - N/A   Clear
1:33 AM 13.3 °F -0.5 °F 9.3 °F 84% 30.24 in 10.0 mi WNW 11.5 mph - N/A   Clear
1:54 AM 12.4 °F 0.0 °F 8.8 °F 85% 30.25 in 10.0 mi NW 9.2 mph - N/A   Clear
2:33 AM 11.1 °F -0.6 °F 7.9 °F 87% 30.27 in 10.0 mi WNW 8.1 mph - N/A   Clear
2:54 AM 10.8 °F 0.0 °F 7.7 °F 87% 30.27 in 10.0 mi WNW 6.9 mph - N/A   Clear
3:14 AM 8.8 °F -1.1 °F 6.1 °F 89% 30.27 in 10.0 mi WNW 5.8 mph - N/A   Clear
3:54 AM 9.0 °F -2.2 °F 6.4 °F 89% 30.27 in 10.0 mi WNW 6.9 mph - N/A   Clear
4:14 AM 8.1 °F -4.3 °F 5.7 °F 90% 30.28 in 10.0 mi WNW 8.1 mph - N/A   Clear
4:34 AM 7.7 °F -4.8 °F 5.7 °F 92% 30.28 in 10.0 mi West 8.1 mph - N/A   Clear
4:54 AM 7.5 °F -3.9 °F 5.2 °F 90% 30.29 in 10.0 mi WNW 6.9 mph - N/A   Clear
5:14 AM 7.0 °F -5.7 °F 4.8 °F 91% 30.30 in 10.0 mi WNW 8.1 mph - N/A   Clear
5:34 AM 7.2 °F -3.0 °F 4.6 °F 89% 30.30 in 10.0 mi WNW 5.8 mph - N/A   Clear
5:54 AM 6.3 °F -4.1 °F 3.9 °F 90% 30.31 in - West 5.8 mph - N/A   Unknown
6:14 AM 5.7 °F -6.1 °F 3.4 °F 90% 30.31 in - WNW 6.9 mph - N/A   Unknown
6:34 AM 5.9 °F -4.5 °F 3.7 °F 91% 30.32 in - WNW 5.8 mph - N/A   Unknown
6:54 AM 2.1 °F -7.4 °F -0.9 °F 87% 30.32 in - WSW 4.6 mph - N/A   Unknown
7:14 AM 1.9 °F -9.2 °F -0.8 °F 88% 30.33 in - West 5.8 mph - N/A   Unknown
7:34 AM 2.7 °F -8.4 °F 0.3 °F 90% 30.33 in - West 5.8 mph - N/A   Unknown
7:54 AM 1.2 °F -8.5 °F -1.5 °F 88% 30.33 in 10.0 mi West 4.6 mph - N/A   Clear
8:14 AM 1.8 °F -7.8 °F -0.9 °F 88% 30.34 in 10.0 mi West 4.6 mph - N/A   Clear
8:34 AM 2.8 °F -6.6 °F 0.1 °F 88% 30.34 in 10.0 mi West 4.6 mph - N/A   Clear
8:54 AM 3.7 °F -7.1 °F 1.2 °F 89% 30.34 in 10.0 mi West 5.8 mph - N/A   Clear
9:14 AM 5.7 °F -3.2 °F 2.7 °F 87% 30.35 in 10.0 mi WNW 4.6 mph - N/A   Clear
9:34 AM 8.6 °F -3.7 °F 5.9 °F 89% 30.36 in 10.0 mi WNW 8.1 mph - N/A   Clear
9:54 AM 9.3 °F -0.5 °F 5.9 °F 86% 30.37 in 10.0 mi WNW 5.8 mph - N/A   Clear
10:14 AM 10.2 °F -0.6 °F 6.8 °F 86% 30.37 in 10.0 mi West 6.9 mph - N/A   Clear
10:34 AM 11.1 °F 1.7 °F 7.0 °F 83% 30.37 in 10.0 mi West 5.8 mph - N/A   Clear
10:50 AM 12.2 °F 2.9 °F 7.7 °F 82% 30.38 in 10.0 mi West 5.8 mph - N/A   Clear
11:14 AM 13.1 °F 5.4 °F 8.4 °F 82% 30.38 in 10.0 mi WSW 4.6 mph - N/A   Clear
11:34 AM 13.8 °F 4.9 °F 8.8 °F 80% 30.38 in 10.0 mi West 5.8 mph - N/A   Clear
11:54 AM 14.4 °F 4.3 °F 9.0 °F 79% 30.38 in 10.0 mi WSW 6.9 mph - N/A   Clear
12:13 PM 15.4 °F 6.8 °F 10.0 °F 79% 30.38 in 10.0 mi WSW 5.8 mph - N/A   Clear
12:34 PM 16.3 °F 6.7 °F 10.9 °F 79% 30.38 in 10.0 mi SW 6.9 mph - N/A   Clear
12:54 PM 17.2 °F 6.0 °F 12.2 °F 81% 30.38 in 10.0 mi WSW 9.2 mph - N/A   Clear
1:13 PM 17.6 °F 7.3 °F 12.6 °F 81% 30.38 in 10.0 mi West 8.1 mph - N/A   Clear
1:34 PM 18.0 °F 8.7 °F 12.9 °F 81% 30.38 in 10.0 mi WSW 6.9 mph - N/A   Clear
1:54 PM 19.0 °F 13.9 °F 13.8 °F 80% 30.37 in 10.0 mi West 3.5 mph - N/A   Clear
2:09 PM 19.9 °F 14.9 °F 14.5 °F 80% 30.36 in 10.0 mi West 3.5 mph - N/A   Clear
2:34 PM 20.8 °F 13.2 °F 14.9 °F 78% 30.36 in 10.0 mi WSW 5.8 mph - N/A   Clear
2:53 PM 21.2 °F 13.6 °F 14.9 °F 77% 30.35 in 10.0 mi WSW 5.8 mph - N/A   Clear
3:13 PM 21.6 °F 13.0 °F 15.4 °F 77% 30.35 in 10.0 mi WSW 6.9 mph - N/A   Clear
3:34 PM 22.1 °F 12.8 °F 16.5 °F 79% 30.35 in 10.0 mi West 8.1 mph - N/A   Clear
3:48 PM 22.1 °F 13.7 °F 16.7 °F 80% 30.34 in 10.0 mi WSW 6.9 mph - N/A   Clear
4:14 PM 22.1 °F 13.7 °F 16.3 °F 79% 30.34 in 10.0 mi West 6.9 mph - N/A   Clear
4:34 PM 22.6 °F 16.5 °F 16.7 °F 78% 30.33 in 10.0 mi SW 4.6 mph - N/A   Clear
4:54 PM 22.6 °F 16.5 °F 15.6 °F 74% 30.32 in 10.0 mi WSW 4.6 mph - N/A   Clear
5:14 PM 22.1 °F - 15.8 °F 77% 30.31 in 10.0 mi Calm Calm - N/A   Clear
5:34 PM 21.7 °F - 15.4 °F 77% 30.30 in 10.0 mi Calm Calm - N/A   Clear
5:54 PM 22.5 °F 17.8 °F 15.8 °F 76% 30.30 in 10.0 mi South 3.5 mph - N/A   Clear
6:14 PM 21.2 °F - 14.9 °F 77% 30.30 in 10.0 mi Calm Calm - N/A   Clear
6:34 PM 20.8 °F 16.0 °F 15.3 °F 79% 30.31 in 10.0 mi South 3.5 mph - N/A   Clear
6:54 PM 21.0 °F - 15.3 °F 78% 30.31 in 10.0 mi Calm Calm - N/A   Clear
7:13 PM 20.5 °F - 15.4 °F 81% 30.31 in 10.0 mi Calm Calm - N/A   Clear
7:34 PM 18.9 °F - 14.5 °F 83% 30.30 in 10.0 mi Calm Calm - N/A   Clear
7:54 PM 18.5 °F 11.7 °F 14.2 °F 83% 30.29 in 10.0 mi SE 4.6 mph - N/A   Clear
8:14 PM 18.5 °F - 14.4 °F 84% 30.29 in 10.0 mi Calm Calm - N/A   Clear
8:34 PM 18.5 °F 13.3 °F 14.5 °F 85% 30.28 in 10.0 mi ESE 3.5 mph - N/A   Clear
8:54 PM 18.5 °F 10.4 °F 14.7 °F 85% 30.26 in 10.0 mi ESE 5.8 mph - N/A   Clear
9:14 PM 19.0 °F 13.9 °F 14.9 °F 84% 30.26 in 10.0 mi SE 3.5 mph - N/A   Clear
9:30 PM 18.9 °F 13.7 °F 14.9 °F 85% 30.26 in 10.0 mi ESE 3.5 mph - N/A   Clear
9:54 PM 19.2 °F 11.3 °F 15.8 °F 87% 30.24 in 10.0 mi ESE 5.8 mph - N/A   Mostly Cloudy
10:14 PM 19.9 °F 13.4 °F 16.3 °F 86% 30.23 in 10.0 mi SE 4.6 mph - N/A   Overcast
10:29 PM 20.3 °F 11.5 °F 16.5 °F 85% 30.23 in 10.0 mi SE 6.9 mph - N/A   Overcast
10:45 PM 21.2 °F 13.6 °F 17.6 °F 86% 30.22 in 10.0 mi SE 5.8 mph - N/A   Overcast
11:02 PM 21.2 °F 12.6 °F 17.4 °F 85% 30.22 in 10.0 mi SE 6.9 mph - N/A   Mostly Cloudy
11:14 PM 21.2 °F 16.4 °F 17.8 °F 87% 30.22 in 10.0 mi SE 3.5 mph - N/A   Overcast
11:25 PM 21.9 °F - 18.5 °F 87% 30.22 in 10.0 mi Calm Calm - N/A   Overcast
11:47 PM 23.0 °F 15.8 °F 19.4 °F 86% 30.21 in 10.0 mi SE 5.8 mph - N/A   Overcast